Flag for U.S.A. Weather past 2 weeks in Garden Grove, California, U.S.A.

Now
60 °F

Light rain. Mostly cloudy.


Feels Like: 60 °F
Forecast: 55 / 72 °F
Wind: No wind

Location: Fullerton Municipal Airport

Current Time: Jan 26, 2015 at 5:56:18 PM

Latest Report: Jan 26, 2015 at 4:53 PM


Visibility: 8 mi

Pressure: 30.05 "Hg

Humidity: 75%

Dew point: 52 °F

Location of Garden GroveLocation

Historic Weather in Garden Grove — Graph

°F

Garden Grove temperature yesterday

Maximum temperature yesterday: 84 °F (at 11:53 AM)
Minimum temperature yesterday: 54 °F (at 5:53 AM)
Average temperature yesterday: 69 °F

Past Weeks' High & Low Weather Summary

 TemperatureHumidityPressure
High84 °F (Jan 24, 2:53 PM)96% (Jan 12, 4:53 AM)30.24 "Hg (Jan 12, 4:53 AM)
Low46 °F (Jan 16, 5:53 AM)9% (Jan 23, 2:53 PM)29.89 "Hg (Jan 20, 2:53 PM)
Average61 °F52%30.09 "Hg
* Reported Jan 11 4:53 PM — Jan 26 4:53 PM, Garden Grove, Weather by CustomWeather, © 2014

Note: Actual official high and low records may vary slightly from our data, if they occured in-between our weather recording intervals... More about our weather records

Advertising

Garden Grove weather history for previous 24 hours

 ConditionsComfort  
Time TempWeatherWind HumidityBarometerVisibility
4:53 PM
Jan 26
60 °FLight rain. Mostly cloudy.No wind75%30.05 "Hg8 mi
3:53 PM66 °FLight rain. Mostly cloudy.9 mph49%30.04 "Hg10 mi
2:53 PM70 °FOvercast.9 mph35%30.01 "Hg10 mi
1:53 PM75 °FPartly sunny.13 mph22%29.96 "Hg10 mi
12:53 PM77 °FPartly sunny.5 mph20%29.97 "Hg10 mi
11:53 AM77 °FScattered clouds.8 mph22%29.98 "Hg10 mi
10:53 AM76 °FSunny.5 mph24%30.00 "Hg10 mi
9:53 AM75 °FScattered clouds.No wind25%30.01 "Hg10 mi
8:53 AM70 °FPassing clouds.7 mph28%29.99 "Hg10 mi
7:53 AM68 °FOvercast.7 mph30%29.97 "Hg10 mi
6:53 AM64 °FMore clouds than sun.No wind35%29.97 "Hg10 mi
5:53 AM65 °FPassing clouds.5 mph32%29.96 "Hg10 mi
4:53 AM62 °FPassing clouds.No wind39%29.97 "Hg10 mi
3:53 AM65 °FPassing clouds.5 mph31%29.96 "Hg10 mi
2:53 AM65 °FLight rain. Passing clouds.No wind34%29.96 "Hg10 mi
1:53 AM60 °FClear.3 mph42%29.98 "Hg10 mi
12:53 AM62 °FClear.No wind37%29.99 "Hg10 mi
11:53 PM
Jan 25
64 °FClear.5 mph30%30.01 "Hg10 mi
10:53 PM63 °FClear.No wind33%30.02 "Hg10 mi
9:53 PM65 °FClear.No wind31%30.03 "Hg10 mi
8:53 PM65 °FClear.No wind32%30.02 "Hg10 mi
7:53 PM66 °FClear.No wind33%30.01 "Hg10 mi
6:53 PM69 °FClear.3 mph29%30.01 "Hg10 mi
5:53 PM72 °FClear.3 mph23%29.98 "Hg10 mi
Weather by CustomWeather, © 2014

See weather overviewHow to use our weather pages